G8PZT-1 Weather Reports


time (UTC)temp
C
wind
direction
speed
KPH
gust
KPH
rain 1hr
cm
rain 24hr
cm
rain mn
cm
humidity
%
barometer
mb
20260506011515 9 350 12.9 14.5 0.00 0.00 0.00 81 1014.0
20260506010515 9 350 12.9 16.1 0.00 0.00 0.00 81 1014.0
20260506005515 9 350 12.9 16.1 0.00 0.00 0.00 81 1014.0
20260506004515 9 360 12.9 12.9 0.00 0.00 0.00 81 1014.0
20260506003515 9 360 14.5 14.5 0.00 0.00 0.00 81 1014.0
20260506002515 9 360 16.1 16.1 0.00 0.00 0.00 81 1015.0
20260506001515 9 360 16.1 17.7 0.00 0.00 0.00 81 1015.0
20260506000516 9 360 16.1 17.7 0.00 0.00 0.00 81 1015.0
20260505235515 9 350 14.5 17.7 0.00 0.00 0.00 81 1015.0
20260505234516 9 350 14.5 17.7 0.00 0.00 0.00 81 1015.0
20260505233516 11 350 17.7 17.7 0.00 0.00 0.00 76 1015.0
20260505230515 11 350 17.7 17.7 0.00 0.00 0.00 76 1015.0
20260505225515 11 350 17.7 17.7 0.00 0.00 0.00 76 1015.0
20260505224515 11 350 17.7 17.7 0.00 0.00 0.00 76 1015.0
20260505223515 11 350 17.7 17.7 0.00 0.00 0.00 76 1015.0
20260505222515 11 350 17.7 17.7 0.00 0.00 0.00 76 1015.0
20260505221515 11 350 17.7 17.7 0.00 0.00 0.00 76 1015.0
20260505220515 11 350 17.7 17.7 0.00 0.00 0.00 76 1015.0
20260505215515 11 350 17.7 17.7 0.00 0.00 0.00 76 1015.0
20260505214516 11 350 17.7 17.7 0.00 0.00 0.00 76 1015.0
20260505213516 11 350 17.7 17.7 0.00 0.00 0.00 76 1015.0
20260505212516 11 350 17.7 17.7 0.00 0.00 0.00 76 1015.0
20260505211817 11 350 17.7 17.7 0.00 0.00 0.00 76 1015.0
20260505210817 11 350 17.7 17.7 0.00 0.00 0.00 76 1015.0
20260505205817 11 350 17.7 17.7 0.00 0.00 0.00 76 1015.0
20260505204816 11 350 17.7 17.7 0.00 0.00 0.00 76 1015.0
20260505203816 11 350 17.7 17.7 0.00 0.00 0.00 76 1015.0
20260505202816 11 340 17.7 45.1 0.00 0.00 0.00 76 1015.0
20260505201816 11 340 17.7 45.1 0.00 0.00 0.00 76 1015.0
20260505200816 11 340 17.7 45.1 0.00 0.00 0.00 76 1015.0
20260505194816 11 340 17.7 45.1 0.00 0.00 0.00 76 1015.0
20260505193817 12 80 45.1 45.1 0.00 0.00 0.00 76 1015.0
20260505191817 12 80 45.1 45.1 0.00 0.00 0.00 76 1015.0
20260505190817 12 80 45.1 45.1 0.00 0.00 0.00 76 1015.0
20260505185817 12 80 45.1 45.1 0.00 0.00 0.00 76 1015.0
20260505184817 12 80 45.1 45.1 0.00 0.00 0.00 76 1015.0
20260505183816 12 80 45.1 45.1 0.00 0.00 0.00 76 1015.0
20260505182816 12 80 45.1 45.1 0.00 0.00 0.00 76 1014.0
20260505181816 12 80 45.1 45.1 0.00 0.00 0.00 76 1014.0
20260505180816 12 80 45.1 45.1 0.00 0.00 0.00 76 1014.0
20260505175817 12 80 45.1 45.1 0.00 0.00 0.00 76 1014.0
20260505174816 12 80 45.1 45.1 0.00 0.00 0.00 76 1014.0
20260505173816 12 80 45.1 45.1 0.00 0.00 0.00 76 1014.0
20260505172817 12 80 45.1 45.1 0.00 0.00 0.00 76 1014.0
20260505171817 12 80 45.1 45.1 0.00 0.00 0.00 76 1014.0
20260505170817 12 80 45.1 45.1 0.00 0.00 0.00 76 1014.0
20260505164817 12 80 45.1 45.1 0.00 0.00 0.00 76 1014.0
20260505163816 12 80 45.1 45.1 0.00 0.00 0.00 76 1014.0
20260505162816 12 80 45.1 45.1 0.00 0.00 0.00 76 1014.0
20260505161816 12 80 45.1 45.1 0.00 0.00 0.00 76 1014.0
20260505160816 12 80 45.1 45.1 0.00 0.00 0.00 76 1014.0
20260505124817 12 80 45.1 45.1 0.00 0.00 0.00 76 1014.0
20260505123817 12 80 45.1 45.1 0.00 0.00 0.00 76 1014.0
20260505121816 12 80 45.1 45.1 0.00 0.00 0.00 76 1015.0
20260505120816 12 80 45.1 45.1 0.00 0.00 0.00 76 1015.0
20260505115816 12 80 45.1 45.1 0.00 0.00 0.00 76 1015.0
20260505114816 12 80 45.1 45.1 0.00 0.00 0.00 76 1015.0
20260505113817 12 80 45.1 45.1 0.00 0.00 0.00 76 1015.0
20260505112817 12 80 45.1 45.1 0.00 0.00 0.00 76 1015.0
20260505111816 12 80 45.1 45.1 0.00 0.00 0.00 76 1015.0
20260505110817 12 80 45.1 45.1 0.00 0.00 0.00 76 1015.0
20260505101816 12 80 45.1 45.1 0.00 0.00 0.00 76 1014.0
20260505095816 12 80 45.1 45.1 0.00 0.00 0.00 76 1014.0
20260505094816 12 80 45.1 45.1 0.00 0.00 0.00 76 1014.0
20260505093816 12 80 45.1 45.1 0.00 0.00 0.00 76 1014.0
20260505092816 12 80 45.1 45.1 0.00 0.00 0.00 76 1014.0
20260505091816 12 80 45.1 45.1 0.00 0.00 0.00 76 1014.0
20260505090816 12 80 45.1 45.1 0.00 0.00 0.00 76 1014.0
20260505085817 12 80 45.1 45.1 0.00 0.00 0.00 76 1014.0
20260505084817 12 80 45.1 45.1 0.00 0.00 0.00 76 1014.0
20260505083817 12 80 45.1 45.1 0.00 0.00 0.00 76 1014.0
20260505082817 12 80 45.1 45.1 0.00 0.00 0.00 76 1014.0
20260505081816 12 80 45.1 45.1 0.00 0.00 0.00 76 1014.0
20260505080816 12 80 45.1 45.1 0.00 0.00 0.00 76 1014.0
20260505074816 12 80 45.1 45.1 0.00 0.00 0.00 76 1014.0
20260505073816 12 80 45.1 45.1 0.00 0.00 0.00 76 1014.0
20260505072816 12 80 45.1 45.1 0.00 0.00 0.00 76 1014.0
20260505071817 12 80 45.1 45.1 0.00 0.00 0.00 76 1014.0
20260505065816 12 80 45.1 45.1 0.00 0.00 0.00 76 1014.0
20260505064817 12 80 45.1 45.1 0.00 0.00 0.00 76 1014.0
20260505063817 12 80 45.1 45.1 0.00 0.00 0.00 76 1014.0
20260505062817 12 80 45.1 45.1 0.00 0.00 0.00 76 1014.0
20260505061817 12 80 45.1 45.1 0.00 0.00 0.00 76 1014.0
20260505060816 12 80 45.1 45.1 0.00 0.00 0.00 76 1014.0
20260505055816 12 80 45.1 45.1 0.00 0.00 0.00 76 1014.0
20260505054816 12 80 45.1 45.1 0.00 0.00 0.00 76 1014.0
20260505053816 12 80 45.1 45.1 0.00 0.00 0.00 76 1014.0
20260505052816 12 80 45.1 45.1 0.00 0.00 0.00 76 1014.0
20260505051816 12 80 45.1 45.1 0.00 0.00 0.00 76 1014.0
20260505050816 12 80 45.1 45.1 0.00 0.00 0.00 76 1014.0
20260505040817 12 80 45.1 45.1 0.00 0.00 0.00 76 1014.0
20260505035816 12 80 45.1 45.1 0.00 0.00 0.00 76 1014.0
20260505034816 12 80 45.1 45.1 0.00 0.00 0.00 76 1014.0
20260505033816 12 80 45.1 45.1 0.00 0.00 0.00 76 1014.0
20260505032816 12 80 45.1 45.1 0.00 0.00 0.00 76 1014.0
20260505031816 12 80 45.1 45.1 0.00 0.00 0.00 76 1014.0
20260505030816 12 80 45.1 45.1 0.00 0.00 0.00 76 1014.0
20260505025816 12 80 45.1 45.1 0.00 0.00 0.00 76 1014.0
20260505024816 12 80 45.1 45.1 0.00 0.00 0.00 76 1014.0
20260505023817 12 80 45.1 45.1 0.00 0.00 0.00 76 1014.0
20260505022817 12 80 45.1 45.1 0.00 0.00 0.00 76 1014.0
20260505021817 12 80 45.1 45.1 0.00 0.00 0.00 76 1014.0
20260505020817 12 80 45.1 45.1 0.00 0.00 0.00 76 1014.0
20260505015817 12 80 45.1 45.1 0.00 0.00 0.00 76 1014.0
20260505014816 12 80 45.1 45.1 0.00 0.00 0.00 76 1014.0
20260505013816 12 80 45.1 45.1 0.00 0.00 0.00 76 1014.0
20260505012816 12 80 45.1 45.1 0.00 0.00 0.00 76 1014.0
20260505011816 12 80 45.1 45.1 0.00 0.00 0.00 76 1014.0